• In Romania
  • List of Countries
  • For 7 days
  • Water Temperature
  • Satellite Maps
  • Weather Map
  • Weather Widgets
  • user-avatar
    Login

    Hourly Weather Canillo

    Today, 16 August, Wednesday

    Time Temperature Precipitation Wind Pressure Humidity
    00:00 +12°C° 0 mm 1 mps 623 mmHg 78%
    01:00 +12°C° 0 mm 1 mps 623 mmHg 78%
    02:00 +12°C° 0 mm 1 mps 623 mmHg 79%
    03:00 +12°C° 0 mm 1 mps 623 mmHg 79%
    04:00 +12°C° 0 mm 1 mps 623 mmHg 78%
    05:00 +12°C° 0 mm 1 mps 623 mmHg 77%
    06:00 +14°C° 0 mm 1 mps 624 mmHg 72%
    07:00 +16°C° 0 mm 1 mps 625 mmHg 66%
    08:00 +18°C° 0 mm 1 mps 625 mmHg 61%
    09:00 +19°C° 0 mm 2 mps 626 mmHg 56%
    10:00 +20°C° 0 mm 2 mps 627 mmHg 52%
    11:00 +21°C° 0 mm 2 mps 627 mmHg 49%
    12:00 +24°C° 0 mm 2 mps 627 mmHg 45%
    13:00 +23°C° 0.2 mm 2 mps 627 mmHg 47%
    14:00 +23°C° 0.2 mm 2 mps 627 mmHg 49%
    15:00 +23°C° 0.2 mm 2 mps 626 mmHg 51%
    16:00 +21°C° 0.4 mm 2 mps 626 mmHg 57%
    17:00 +20°C° 0.4 mm 2 mps 626 mmHg 64%
    18:00 +20°C° 0.4 mm 1 mps 625 mmHg 71%
    19:00 +18°C° 0.1 mm 1 mps 625 mmHg 76%
    20:00 +16°C° 0.1 mm 1 mps 625 mmHg 82%
    21:00 +14°C° 0.1 mm 1 mps 624 mmHg 87%
    22:00 +14°C° 0 mm 1 mps 624 mmHg 88%
    23:00 +14°C° 0 mm 1 mps 624 mmHg 89%

    Tomorrow, 17 August, Thursday

    Time Temperature Precipitation Wind Pressure Humidity
    00:00 +13°C° 0 mm 1 mps 624 mmHg 90%
    01:00 +13°C° 0 mm 1 mps 624 mmHg 90%
    02:00 +13°C° 0 mm 1 mps 623 mmHg 90%
    03:00 +12°C° 0 mm 1 mps 623 mmHg 90%
    04:00 +13°C° 0 mm 1 mps 623 mmHg 88%
    05:00 +13°C° 0 mm 1 mps 623 mmHg 86%
    06:00 +13°C° 0 mm 1 mps 623 mmHg 85%
    07:00 +16°C° 0 mm 1 mps 624 mmHg 75%
    08:00 +19°C° 0 mm 1 mps 626 mmHg 65%
    09:00 +22°C° 0 mm 1 mps 627 mmHg 54%
    10:00 +23°C° 0 mm 1 mps 627 mmHg 51%
    11:00 +24°C° 0 mm 2 mps 627 mmHg 47%
    12:00 +25°C° 0 mm 2 mps 627 mmHg 43%
    13:00 +25°C° 0 mm 2 mps 627 mmHg 44%
    14:00 +25°C° 0 mm 2 mps 626 mmHg 46%
    15:00 +24°C° 0 mm 2 mps 626 mmHg 47%
    16:00 +23°C° 0 mm 2 mps 626 mmHg 52%
    17:00 +22°C° 0 mm 1 mps 625 mmHg 56%
    18:00 +21°C° 0 mm 1 mps 625 mmHg 61%
    19:00 +19°C° 0 mm 1 mps 624 mmHg 66%
    20:00 +18°C° 0 mm 1 mps 624 mmHg 71%
    21:00 +15°C° 0 mm 1 mps 623 mmHg 76%
    22:00 +15°C° 0 mm 1 mps 623 mmHg 77%
    23:00 +15°C° 0 mm 1 mps 623 mmHg 78%

    Day after tomorrow, 18 August, Friday

    Time Temperature Precipitation Wind Pressure Humidity
    00:00 +14°C° 0 mm 1 mps 623 mmHg 78%
    01:00 +14°C° 0 mm 1 mps 622 mmHg 78%
    02:00 +14°C° 0 mm 1 mps 622 mmHg 78%
    03:00 +14°C° 0 mm 1 mps 622 mmHg 78%
    04:00 +14°C° 0 mm 1 mps 622 mmHg 77%
    05:00 +14°C° 0 mm 1 mps 622 mmHg 76%
    06:00 +14°C° 0 mm 1 mps 622 mmHg 75%
    07:00 +18°C° 0 mm 1 mps 623 mmHg 66%
    08:00 +19°C° 0 mm 2 mps 624 mmHg 57%
    09:00 +21°C° 0 mm 2 mps 625 mmHg 49%
    10:00 +23°C° 0 mm 2 mps 625 mmHg 47%
    11:00 +24°C° 0 mm 3 mps 626 mmHg 46%
    12:00 +25°C° 0 mm 3 mps 626 mmHg 44%
    13:00 +22°C° 0.3 mm 3 mps 625 mmHg 52%
    14:00 +21°C° 0.3 mm 3 mps 624 mmHg 59%
    15:00 +19°C° 0.3 mm 3 mps 624 mmHg 67%
    16:00 +18°C° 1.1 mm 3 mps 624 mmHg 72%
    17:00 +17°C° 1.1 mm 3 mps 623 mmHg 77%
    18:00 +16°C° 1.1 mm 3 mps 623 mmHg 81%
    19:00 +14°C° 0.5 mm 3 mps 623 mmHg 85%
    20:00 +14°C° 0.5 mm 2 mps 623 mmHg 88%
    21:00 +13°C° 0.5 mm 2 mps 624 mmHg 92%
    22:00 +13°C° 0.2 mm 2 mps 624 mmHg 92%
    23:00 +12°C° 0.2 mm 2 mps 624 mmHg 92%

    19 August, Saturday

    Time Temperature Precipitation Wind Pressure Humidity
    00:00 +12°C° 0.2 mm 2 mps 624 mmHg 92%
    01:00 +12°C° 0 mm 2 mps 623 mmHg 93%
    02:00 +12°C° 0 mm 2 mps 623 mmHg 93%
    03:00 +10°C° 0 mm 2 mps 623 mmHg 93%
    04:00 +10°C° 0 mm 2 mps 623 mmHg 93%
    05:00 +10°C° 0 mm 2 mps 623 mmHg 93%
    06:00 +10°C° 0 mm 2 mps 624 mmHg 93%
    07:00 +12°C° 0 mm 2 mps 624 mmHg 87%
    08:00 +13°C° 0 mm 2 mps 625 mmHg 80%
    09:00 +14°C° 0 mm 2 mps 625 mmHg 74%
    10:00 +16°C° 0 mm 2 mps 626 mmHg 66%
    11:00 +17°C° 0 mm 2 mps 626 mmHg 57%
    12:00 +19°C° 0 mm 2 mps 627 mmHg 49%
    13:00 +19°C° 0 mm 2 mps 627 mmHg 48%
    14:00 +19°C° 0 mm 2 mps 626 mmHg 47%
    15:00 +19°C° 0 mm 2 mps 626 mmHg 47%
    16:00 +18°C° 0 mm 2 mps 626 mmHg 51%
    17:00 +16°C° 0 mm 2 mps 625 mmHg 55%
    18:00 +15°C° 0 mm 2 mps 625 mmHg 60%
    19:00 +14°C° 0 mm 2 mps 625 mmHg 65%
    20:00 +12°C° 0 mm 2 mps 625 mmHg 70%
    21:00 +10°C° 0 mm 2 mps 625 mmHg 75%
    22:00 +9°C° 0 mm 2 mps 624 mmHg 75%
    23:00 +9°C° 0 mm 2 mps 624 mmHg 76%

    20 August, Sunday

    Time Temperature Precipitation Wind Pressure Humidity
    00:00 +8°C° 0 mm 2 mps 624 mmHg 76%
    01:00 +8°C° 0 mm 2 mps 624 mmHg 76%
    02:00 +8°C° 0 mm 2 mps 624 mmHg 76%
    03:00 +7°C° 0 mm 2 mps 623 mmHg 76%
    04:00 +7°C° 0 mm 2 mps 624 mmHg 73%
    05:00 +8°C° 0 mm 2 mps 624 mmHg 71%
    06:00 +8°C° 0 mm 2 mps 624 mmHg 69%
    07:00 +10°C° 0 mm 2 mps 625 mmHg 57%
    08:00 +14°C° 0 mm 2 mps 626 mmHg 45%
    09:00 +17°C° 0 mm 2 mps 627 mmHg 33%
    10:00 +18°C° 0 mm 2 mps 628 mmHg 31%
    11:00 +20°C° 0 mm 2 mps 628 mmHg 28%
    12:00 +21°C° 0 mm 2 mps 628 mmHg 26%
    13:00 +21°C° 0 mm 2 mps 628 mmHg 27%
    14:00 +21°C° 0 mm 2 mps 628 mmHg 28%
    15:00 +21°C° 0 mm 2 mps 627 mmHg 29%
    16:00 +20°C° 0 mm 2 mps 627 mmHg 36%
    17:00 +19°C° 0 mm 1 mps 626 mmHg 43%
    18:00 +16°C° 0 mm 1 mps 625 mmHg 49%
    19:00 +15°C° 0 mm 1 mps 625 mmHg 53%
    20:00 +13°C° 0 mm 1 mps 625 mmHg 56%
    21:00 +11°C° 0 mm 1 mps 624 mmHg 59%
    22:00 +11°C° 0 mm 1 mps 624 mmHg 59%
    23:00 +11°C° 0 mm 1 mps 624 mmHg 59%

    21 August, Monday

    Time Temperature Precipitation Wind Pressure Humidity
    00:00 +11°C° 0 mm 1 mps 624 mmHg 58%
    01:00 +11°C° 0 mm 1 mps 623 mmHg 58%
    02:00 +10°C° 0 mm 1 mps 623 mmHg 57%
    03:00 +10°C° 0 mm 1 mps 623 mmHg 56%
    04:00 +11°C° 0 mm 1 mps 623 mmHg 56%
    05:00 +11°C° 0 mm 1 mps 623 mmHg 55%
    06:00 +11°C° 0 mm 1 mps 624 mmHg 55%
    07:00 +14°C° 0 mm 1 mps 625 mmHg 48%
    08:00 +18°C° 0 mm 1 mps 626 mmHg 41%
    09:00 +21°C° 0 mm 1 mps 627 mmHg 34%
    10:00 +23°C° 0 mm 1 mps 628 mmHg 31%
    11:00 +24°C° 0 mm 1 mps 628 mmHg 29%
    12:00 +25°C° 0 mm 1 mps 628 mmHg 27%
    13:00 +26°C° 0 mm 1 mps 628 mmHg 27%
    14:00 +26°C° 0 mm 2 mps 627 mmHg 28%
    15:00 +26°C° 0 mm 2 mps 627 mmHg 28%
    16:00 +24°C° 0 mm 1 mps 626 mmHg 35%
    17:00 +22°C° 0 mm 1 mps 625 mmHg 42%
    18:00 +20°C° 0 mm 1 mps 625 mmHg 48%
    19:00 +18°C° 0 mm 1 mps 624 mmHg 52%
    20:00 +15°C° 0 mm 1 mps 624 mmHg 55%
    21:00 +14°C° 0 mm 1 mps 623 mmHg 58%
    22:00 +13°C° 0 mm 1 mps 623 mmHg 57%
    23:00 +13°C° 0 mm 1 mps 623 mmHg 57%
    Show more